Date,TemperatureHighF,TemperatureAvgF,TemperatureLowF,DewpointHighF,DewpointAvgF,DewpointLowF,HumidityHigh,HumidityAvg,HumidityLow,PressureMaxIn,PressureMinIn,WindSpeedMaxMPH,WindSpeedAvgMPH,GustSpeedMaxMPH,PrecipitationSumIn
2013-1-1,68,56,45,58,51,44,95,84,67,30.17,29.92,7,0,7,0.00
2013-1-2,64,58,51,60,55,50,95,90,81,30.12,29.87,10,1,10,0.01
2013-1-3,52,50,45,51,48,43,97,95,93,30.25,30.06,9,0,9,0.15
2013-1-4,55,44,35,43,38,34,97,82,49,30.33,30.23,7,0,7,0.00
2013-1-5,57,44,32,41,35,29,97,74,38,30.40,30.27,7,0,7,0.00
2013-1-6,55,49,45,48,45,41,96,85,66,30.28,30.08,4,0,5,0.03
2013-1-7,58,48,41,44,38,35,91,71,46,30.38,30.15,14,1,14,0.00
2013-1-8,68,53,42,55,46,38,95,79,59,30.38,30.29,5,0,6,0.00
2013-1-9,73,61,52,64,57,50,97,87,71,30.37,30.29,4,0,5,0.00
2013-1-10,72,60,52,62,57,51,99,90,60,30.43,30.33,9,1,9,0.04
2013-1-11,77,63,55,67,59,53,98,89,63,30.33,30.15,7,0,7,0.00
2013-1-12,81,67,57,67,62,56,99,85,56,30.19,30.09,6,0,6,0.01
2013-1-13,78,64,53,66,59,52,99,87,61,30.16,30.05,8,0,8,0.00
2013-1-14,80,66,57,68,62,56,99,86,59,30.18,30.08,12,1,12,0.01
2013-1-15,79,66,57,67,62,56,99,86,55,30.14,30.02,10,0,11,0.00
2013-1-16,81,68,60,66,63,59,98,84,56,30.05,29.93,12,1,12,0.00
2013-1-17,80,62,47,64,56,40,98,83,55,30.04,29.71,20,2,20,0.13
2013-1-18,56,46,38,42,33,24,92,64,30,30.48,30.04,13,2,15,0.00
2013-1-19,64,49,35,48,39,30,94,69,47,30.47,30.21,8,1,8,0.00
2013-1-20,69,52,41,47,39,27,98,69,21,30.22,30.02,14,1,14,0.00
2013-1-21,67,51,35,44,37,32,95,63,28,30.09,29.94,13,1,15,0.00
2013-1-22,55,46,34,34,27,24,79,49,32,30.26,30.02,9,1,9,0.00
2013-1-23,54,41,31,37,27,18,86,60,31,30.36,30.16,8,1,8,0.00
2013-1-24,68,50,33,47,36,18,81,59,35,30.46,30.08,15,2,16,0.00
2013-1-25,50,38,29,40,26,13,68,60,51,30.45,30.13,8,-2,10,0.00
2013-1-26,61,46,36,43,35,29,90,68,40,30.31,30.10,6,1,7,0.00
2013-1-27,56,43,33,40,35,28,89,74,50,30.50,30.31,9,-3,10,0.00
2013-1-28,67,50,40,55,44,36,96,80,62,30.46,30.26,7,1,7,0.00
2013-1-29,78,61,46,65,56,45,98,87,59,30.27,30.09,10,1,11,0.00
2013-1-30,77,69,60,67,65,59,98,86,69,30.09,29.60,23,3,25,0.08
2013-1-31,62,50,41,59,35,24,96,58,30,30.17,29.70,23,3,23,0.27
2013-2-1,59,46,32,34,27,18,70,50,23,30.35,30.14,17,2,18,0.00
2013-2-2,61,44,28,40,29,16,83,59,40,30.37,30.08,10,1,12,0.00
2013-2-3,62,49,39,38,34,31,81,60,35,30.08,29.90,14,2,14,0.00
2013-2-4,57,45,31,40,33,29,92,67,36,30.14,30.02,7,0,7,0.00
2013-2-5,70,53,35,50,44,34,96,75,39,30.06,29.92,14,1,14,0.00
2013-2-6,73,57,44,53,47,41,97,75,33,30.17,30.00,7,1,8,0.00
2013-2-7,59,52,45,56,51,43,98,95,85,30.15,29.68,9,1,9,1.80
2013-2-8,64,55,48,55,50,46,98,83,64,30.04,29.70,10,2,10,0.04
2013-2-9,61,49,36,49,34,25,93,61,26,30.33,30.04,10,1,10,0.00
2013-2-10,67,51,33,53,45,32,94,80,58,30.40,30.18,14,1,14,0.00
2013-2-11,66,61,55,64,60,52,98,96,90,30.22,30.02,16,1,16,1.58
2013-2-12,62,57,51,59,54,48,99,91,61,30.11,29.87,9,1,9,1.64
2013-2-13,72,57,49,65,53,48,99,87,58,29.89,29.67,17,2,17,0.42
2013-2-14,55,49,43,49,43,39,95,80,60,30.06,29.83,8,0,9,0.00
2013-2-15,63,48,35,48,40,34,98,77,40,30.10,29.95,9,0,9,0.00
2013-2-16,54,42,35,44,38,30,98,88,63,30.03,29.82,15,1,15,0.05
2013-2-17,48,37,29,31,20,13,87,56,25,30.31,30.03,13,2,14,0.00
2013-2-18,57,40,26,32,26,22,86,62,27,30.42,30.25,13,1,13,0.00
2013-2-19,65,49,36,56,46,32,98,90,61,30.25,29.96,12,1,12,0.27
2013-2-20,60,48,32,48,35,27,98,65,29,30.15,30.02,8,1,8,0.01
2013-2-21,67,49,34,46,39,33,96,73,35,30.18,30.06,9,1,9,0.00
2013-2-22,58,51,45,57,47,42,98,89,74,30.19,30.04,12,1,12,0.41
2013-2-23,61,48,44,60,48,43,99,98,97,30.04,29.77,9,0,9,1.57
2013-2-24,67,54,46,54,48,44,99,83,44,29.99,29.74,8,1,8,0.00
2013-2-25,49,46,42,47,44,38,98,92,79,30.08,29.94,10,1,13,0.17
2013-2-26,74,61,46,68,58,44,99,90,73,29.95,29.55,29,1,29,2.16
2013-2-27,60,53,48,55,43,39,94,70,52,29.89,29.68,11,2,11,0.00
2013-2-28,61,52,45,42,38,32,84,62,37,29.89,29.77,13,2,14,0.00
2013-3-1,55,46,39,37,33,31,82,62,44,29.95,29.85,9,1,11,0.00
2013-3-2,54,43,36,36,34,31,88,71,45,29.92,29.83,12,2,12,0.00
2013-3-3,49,40,31,35,29,26,92,66,43,30.01,29.89,11,1,11,0.00
2013-3-4,56,42,28,37,26,21,86,58,26,30.17,30.00,10,1,10,0.00
2013-3-5,69,55,40,57,44,37,94,70,34,30.12,29.69,17,1,17,0.03
2013-3-6,59,48,40,55,32,25,88,55,37,30.07,29.68,21,4,22,0.00
2013-3-7,61,46,32,37,33,28,87,63,37,30.22,30.06,9,1,10,0.00
2013-3-8,61,48,38,36,30,25,85,53,27,30.27,30.13,11,2,11,0.00
2013-3-9,65,50,35,43,36,29,92,62,36,30.31,30.20,9,1,9,0.00
2013-3-10,71,52,36,48,40,32,96,67,35,30.27,30.18,9,1,10,0.00
2013-3-11,71,60,45,60,53,39,96,78,56,30.20,29.89,14,2,14,0.00
2013-3-12,72,65,53,65,58,46,96,81,47,29.93,29.78,14,2,15,0.10
2013-3-13,67,55,42,46,35,27,87,52,23,30.11,29.93,15,2,15,0.00
2013-3-14,56,46,37,32,25,21,82,46,27,30.30,30.08,11,2,11,0.00
2013-3-15,69,51,33,46,35,27,91,61,29,30.22,30.01,9,1,10,0.00
2013-3-16,80,66,53,49,46,43,78,51,29,30.02,29.83,14,2,18,0.00
2013-3-17,79,66,57,57,52,45,82,61,43,30.01,29.91,10,2,13,0.00
2013-3-18,68,62,56,61,58,53,97,86,72,30.06,29.83,11,1,17,0.29
2013-3-19,76,62,53,58,50,33,98,71,26,29.98,29.77,10,1,12,0.13
2013-3-20,64,55,41,38,30,21,86,41,22,30.09,29.81,12,1,14,0.00
2013-3-21,58,47,37,38,26,13,91,49,18,29.94,29.77,16,2,16,0.00
2013-3-22,56,46,36,40,27,19,73,49,31,30.09,29.93,7,1,8,0.00
2013-3-23,56,48,42,54,44,37,96,87,63,30.05,29.86,7,0,9,0.35
2013-3-24,60,52,46,59,50,44,98,96,92,29.87,29.45,14,2,14,2.76
2013-3-25,56,49,42,47,35,24,97,62,32,29.95,29.56,21,3,21,0.00
2013-3-26,52,43,34,32,28,25,76,56,40,30.16,29.95,12,2,12,0.00
2013-3-27,60,46,31,36,30,27,88,59,31,30.26,30.14,11,1,12,0.00
2013-3-28,61,48,37,36,30,26,91,53,27,30.29,30.16,11,1,11,0.00
2013-3-29,67,50,34,42,34,26,92,59,23,30.34,30.18,10,1,10,0.00
2013-3-30,75,60,48,52,46,42,91,65,33,30.23,30.04,11,1,11,0.00
2013-3-31,76,64,56,60,56,51,97,77,56,30.07,29.86,16,1,16,0.39
2013-4-1,76,64,56,64,59,54,98,84,54,29.93,29.83,12,1,12,0.16
2013-4-2,72,57,47,54,48,45,95,73,42,30.12,29.93,11,1,12,0.00
2013-4-3,70,57,46,55,48,44,98,75,48,30.23,30.05,10,1,10,0.00
2013-4-4,56,53,48,55,49,44,97,89,73,30.22,29.83,10,1,12,0.49
2013-4-5,59,50,44,50,46,42,97,88,71,30.02,29.85,9,1,10,0.09
2013-4-6,74,56,41,52,46,41,98,72,34,30.22,30.01,14,1,14,0.09
2013-4-7,76,60,47,61,54,46,98,81,54,30.23,30.12,12,1,15,0.00
2013-4-8,81,65,50,63,58,49,98,80,49,30.17,30.09,12,1,15,0.00
2013-4-9,83,69,55,67,61,54,98,79,47,30.20,30.10,9,1,10,0.00
2013-4-10,83,69,56,68,61,56,99,79,47,30.15,30.00,13,1,14,0.00
2013-4-11,83,71,59,72,66,58,98,87,68,30.00,29.82,14,1,17,0.00
2013-4-12,81,72,67,74,70,66,99,93,77,29.84,29.71,16,1,16,0.70
2013-4-13,76,64,50,66,53,48,98,72,39,30.01,29.81,7,0,9,0.29
2013-4-14,72,62,51,63,58,50,98,87,65,30.07,29.93,10,1,11,0.03
2013-4-15,71,66,60,67,64,60,98,93,81,30.14,29.86,10,0,11,0.08
2013-4-16,80,69,58,68,62,57,99,80,56,30.23,30.13,9,0,9,0.03
2013-4-17,84,69,57,69,62,56,99,82,54,30.22,30.11,9,1,9,0.00
2013-4-18,82,70,61,70,65,60,98,84,60,30.13,30.01,14,1,14,0.01
2013-4-19,82,72,67,73,69,65,98,89,73,30.01,29.81,16,1,18,0.59
2013-4-20,66,56,46,65,50,43,97,84,56,30.23,29.91,8,1,8,0.45
2013-4-21,70,56,43,54,48,42,96,74,50,30.32,30.22,12,2,17,0.00
2013-4-22,69,58,49,54,47,37,81,66,56,30.29,30.11,11,2,11,0.00
2013-4-23,66,58,53,57,52,48,96,81,69,30.20,30.11,8,1,9,0.00
2013-4-24,79,64,47,63,56,46,98,78,47,30.17,30.03,10,1,10,0.00
2013-4-25,81,68,60,69,64,59,98,88,60,30.21,30.06,7,0,7,0.54
2013-4-26,77,66,55,62,54,42,98,70,31,30.35,30.20,11,1,11,0.01
2013-4-27,74,63,53,63,53,46,96,74,39,30.33,30.21,8,0,8,0.01
2013-4-28,76,66,55,66,61,51,96,84,68,30.22,30.02,15,1,15,0.00
2013-4-29,80,68,62,70,65,61,97,92,68,30.04,29.93,9,0,9,1.42
2013-4-30,75,66,62,68,64,60,98,93,77,30.08,29.94,6,0,7,0.04
2013-5-1,72,65,59,63,60,58,96,86,68,30.17,30.06,10,1,10,0.01
2013-5-2,74,67,63,67,63,58,94,86,74,30.16,30.09,12,2,12,0.03
2013-5-3,70,63,59,64,58,49,96,83,62,30.10,30.00,25,2,25,0.03
2013-5-4,68,61,54,61,56,50,93,86,67,30.00,29.89,12,2,13,0.07
2013-5-5,72,65,61,67,63,60,97,94,83,29.89,29.77,11,2,14,1.04
2013-5-6,73,64,55,63,56,50,98,78,48,29.91,29.81,7,0,8,0.00
2013-5-7,71,60,52,62,56,50,97,88,61,29.96,29.88,10,0,10,0.15
2013-5-8,79,65,50,62,57,49,99,79,49,30.03,29.94,9,0,11,0.01
2013-5-9,85,71,58,66,62,58,97,74,45,30.07,30.00,7,0,7,0.00
2013-5-10,89,74,60,68,63,59,97,72,43,30.08,29.98,11,0,11,0.00
2013-5-11,84,74,67,69,67,64,97,79,56,30.01,29.85,7,0,7,0.00
2013-5-12,83,74,62,69,62,51,94,68,39,29.99,29.83,9,1,9,0.00
2013-5-13,73,64,53,51,45,40,86,53,32,30.13,29.97,7,1,7,0.00
2013-5-14,75,62,48,54,49,42,94,65,32,30.24,30.11,9,1,10,0.00
2013-5-15,86,71,55,66,59,53,94,69,43,30.16,29.98,8,1,9,0.00
2013-5-16,86,73,62,69,64,58,89,74,52,30.05,29.97,6,0,6,0.00
2013-5-17,89,75,62,69,65,62,98,74,46,30.09,30.01,9,0,9,0.00
2013-5-18,86,75,65,72,67,64,98,79,52,30.13,30.04,10,1,10,0.00
2013-5-19,84,75,68,72,70,66,96,83,66,30.12,30.03,10,1,11,0.00
2013-5-20,83,73,68,76,71,68,98,93,73,30.09,30.00,10,0,11,0.44
2013-5-21,77,72,68,74,70,66,99,95,77,30.06,29.97,8,0,8,0.33
2013-5-22,85,74,65,73,68,64,99,85,58,30.01,29.90,9,1,9,0.00
2013-5-23,87,76,66,73,69,66,99,81,56,29.95,29.81,7,0,7,0.00
2013-5-24,83,74,63,69,58,41,95,62,30,30.15,29.84,9,1,9,0.00
2013-5-25,77,65,52,55,47,41,87,56,29,30.28,30.14,7,0,8,0.00
2013-5-26,83,69,54,62,58,53,97,72,44,30.25,30.12,8,0,8,0.00
2013-5-27,86,72,58,68,63,57,97,76,51,30.23,30.14,9,1,9,0.00
2013-5-28,86,73,62,70,65,61,97,77,48,30.22,30.16,11,1,11,0.00
2013-5-29,83,69,62,70,65,61,98,88,60,30.23,30.14,8,0,8,0.00
2013-5-30,87,75,63,74,68,62,98,82,58,30.24,30.14,11,1,11,0.00
2013-5-31,88,77,68,74,70,67,98,81,54,30.20,30.11,12,1,12,0.00
2013-6-1,88,76,65,73,69,65,98,81,56,30.14,30.05,11,1,11,0.00
2013-6-2,88,76,66,76,71,65,98,85,63,30.08,29.91,11,1,15,0.02
2013-6-3,82,76,71,77,73,68,97,91,83,29.95,29.83,8,0,8,0.44
2013-6-4,90,77,69,79,73,68,98,88,62,30.01,29.89,10,1,10,0.01
2013-6-5,83,75,71,76,73,69,98,94,80,30.03,29.93,9,1,10,0.98
2013-6-6,78,74,70,75,72,69,99,94,86,29.96,29.68,9,0,9,1.31
2013-6-7,84,77,73,76,74,72,98,89,72,29.85,29.47,16,1,16,0.20
2013-6-8,88,79,73,77,74,71,97,85,63,30.08,29.83,7,-3,8,0.05
2013-6-9,88,79,74,78,75,73,98,86,69,30.12,30.03,11,1,11,0.00
2013-6-10,88,79,69,79,75,68,98,88,73,30.09,29.95,13,1,13,0.40
2013-6-11,88,78,70,78,74,69,98,89,68,30.02,29.90,9,0,9,0.77
2013-6-12,92,82,72,79,75,72,99,82,54,29.98,29.88,5,0,5,0.00
2013-6-13,95,86,77,81,77,74,98,78,57,29.90,29.70,7,0,8,0.00
2013-6-14,87,80,68,75,66,61,90,66,45,29.98,29.70,7,1,8,0.00
2013-6-15,86,74,65,68,63,58,95,71,47,30.11,29.98,9,1,10,0.00
2013-6-16,88,74,62,70,65,60,96,74,47,30.15,30.04,10,0,10,0.00
2013-6-17,89,77,68,78,72,66,97,86,59,30.07,29.94,8,0,8,0.28
2013-6-18,88,77,70,78,73,68,99,90,66,30.00,29.83,13,0,14,1.38
2013-6-19,86,77,73,77,74,71,98,93,71,30.03,29.87,7,0,8,0.84
2013-6-20,82,76,68,73,70,63,98,84,57,30.14,30.01,10,1,10,0.00
2013-6-21,85,76,67,74,69,64,91,79,64,30.16,30.09,9,0,9,0.00
2013-6-22,85,76,70,75,72,69,98,87,67,30.15,30.08,9,0,10,0.01
2013-6-23,89,78,72,79,74,71,98,89,62,30.17,30.09,6,0,7,0.60
2013-6-24,86,78,73,78,75,72,98,90,73,30.20,30.11,6,0,8,0.14
2013-6-25,90,80,73,78,75,71,98,86,61,30.15,30.03,10,0,10,0.01
2013-6-26,89,78,71,78,73,70,97,86,66,30.06,29.94,12,1,12,0.03
2013-6-27,92,79,73,81,76,69,98,91,66,29.98,29.77,11,0,15,0.82
2013-6-28,91,82,73,83,77,72,98,86,71,29.81,29.64,8,0,9,0.11
2013-6-29,88,79,72,78,74,70,95,84,70,29.75,29.67,8,0,9,0.02
2013-6-30,86,75,70,79,74,70,98,95,76,29.84,29.71,8,0,8,1.56
2013-7-1,88,78,71,80,75,70,99,92,70,29.99,29.80,14,0,14,0.42
2013-7-2,80,76,73,77,74,73,98,96,87,30.13,29.98,10,0,10,1.35
2013-7-3,84,77,74,80,75,72,98,93,83,30.19,30.10,10,0,10,1.47
2013-7-4,88,79,73,79,76,72,98,89,67,30.21,30.14,16,1,16,0.11
2013-7-5,90,79,74,79,76,73,99,90,68,30.21,30.14,14,1,14,0.13
2013-7-6,89,79,72,78,75,72,99,88,65,30.20,30.11,12,1,17,0.07
2013-7-7,89,79,71,77,74,70,98,85,62,30.17,30.08,12,1,12,0.00
2013-7-8,88,79,70,78,74,70,98,85,63,30.18,30.09,6,0,8,0.00
2013-7-9,89,80,72,79,74,71,98,84,62,30.17,30.07,9,0,9,0.00
2013-7-10,91,81,72,77,74,71,98,81,56,30.12,29.95,10,0,10,0.00
2013-7-11,91,81,73,79,75,72,97,83,63,29.99,29.86,10,0,10,0.00
2013-7-12,80,76,73,76,74,71,98,93,87,29.94,29.85,5,0,6,0.11
2013-7-13,86,77,73,79,75,72,98,93,77,30.05,29.90,8,0,11,0.55
2013-7-14,88,80,73,78,75,72,97,86,67,30.19,30.05,13,1,13,0.18
2013-7-15,89,81,74,79,75,73,97,85,66,30.22,30.16,7,1,13,0.00
2013-7-16,91,80,73,80,75,73,98,85,60,30.25,30.16,8,0,8,0.09
2013-7-17,93,80,72,79,74,70,98,85,55,30.20,30.06,9,0,9,0.00
2013-7-18,90,78,70,79,74,70,98,90,66,30.14,30.05,6,0,6,0.10
2013-7-19,90,80,71,78,74,70,99,85,65,30.10,29.99,10,0,10,0.00
2013-7-20,88,79,74,78,75,72,97,86,68,30.06,29.97,11,0,13,0.01
2013-7-21,87,78,73,79,74,71,97,90,71,30.04,29.92,8,0,9,0.16
2013-7-22,89,80,74,78,75,72,97,85,67,30.00,29.88,8,0,10,0.00
2013-7-23,88,80,75,77,74,72,95,83,64,29.92,29.77,9,0,9,0.00
2013-7-24,85,78,72,78,75,70,95,89,76,29.82,29.73,5,0,5,0.04
2013-7-25,90,80,72,78,74,71,98,82,58,29.96,29.75,5,0,6,0.00
2013-7-26,89,80,72,77,74,70,95,85,66,30.04,29.95,9,1,9,0.00
2013-7-27,90,78,73,80,75,72,98,90,69,30.02,29.88,10,0,11,0.06
2013-7-28,86,80,75,78,76,74,97,89,73,30.00,29.90,6,0,7,0.00
2013-7-29,93,78,71,80,74,70,98,90,60,30.13,29.99,11,0,12,3.13
2013-7-30,89,79,72,80,75,71,99,90,68,30.16,30.08,8,0,8,0.00
2013-7-31,87,77,73,79,75,71,99,93,70,30.11,30.00,12,0,12,0.88
2013-8-1,84,77,73,77,74,72,99,92,77,30.00,29.90,7,0,7,0.03
2013-8-2,90,79,73,80,75,72,97,88,72,30.02,29.91,9,0,9,0.00
2013-8-3,92,82,74,80,76,73,99,86,61,30.03,29.90,6,0,7,0.00
2013-8-4,92,82,75,79,76,74,98,82,58,29.98,29.86,6,0,6,0.00
2013-8-5,87,79,71,75,71,66,96,78,57,30.03,29.94,8,1,10,0.00
2013-8-6,88,78,69,75,71,68,96,81,58,30.02,29.93,9,1,9,0.00
2013-8-7,88,79,71,76,72,70,96,82,57,30.05,29.97,7,0,8,0.00
2013-8-8,90,79,72,80,75,71,98,89,65,30.05,29.98,7,0,9,0.52
2013-8-9,92,82,74,80,76,74,99,84,62,30.09,29.99,7,0,8,0.00
2013-8-10,92,82,74,80,77,73,99,85,61,30.11,30.03,8,0,8,0.00
2013-8-11,93,84,76,80,77,74,98,82,56,30.12,30.02,6,0,6,0.00
2013-8-12,94,85,77,80,78,74,95,80,57,30.07,29.93,5,0,7,0.00
2013-8-13,94,84,76,81,78,75,98,82,62,29.96,29.81,7,0,8,0.08
2013-8-14,86,78,74,79,76,73,98,92,78,29.98,29.83,5,0,7,1.09
2013-8-15,74,68,64,74,67,64,98,98,96,30.08,29.95,11,0,12,1.10
2013-8-16,76,71,66,74,70,66,99,95,89,30.06,29.99,6,0,7,0.03
2013-8-17,77,72,70,74,71,69,98,95,87,30.13,30.00,5,0,6,0.02
2013-8-18,89,78,71,78,74,70,98,87,66,30.17,30.08,8,0,9,0.11
2013-8-19,89,78,74,80,76,73,99,93,70,30.12,30.01,8,0,8,0.50
2013-8-20,89,77,74,80,75,73,99,94,70,30.14,30.03,9,0,9,0.32
2013-8-21,90,80,72,80,76,72,99,89,64,30.19,30.09,8,0,8,0.00
2013-8-22,89,80,74,79,76,73,99,87,66,30.13,30.00,6,0,6,0.00
2013-8-23,89,79,72,77,74,70,98,86,61,30.04,29.93,8,0,9,0.00
2013-8-24,83,76,72,76,73,68,98,89,73,30.20,29.98,8,0,9,0.22
2013-8-25,84,75,66,70,66,62,95,77,49,30.28,30.19,9,1,9,0.00
2013-8-26,84,74,66,71,67,63,96,79,61,30.25,30.10,6,0,7,0.00
2013-8-27,85,74,65,72,68,64,99,83,60,30.12,29.98,6,0,6,0.01
2013-8-28,89,78,69,75,71,68,96,81,61,30.01,29.91,5,0,5,0.00
2013-8-29,92,81,72,80,75,71,96,82,62,29.96,29.83,9,0,9,0.07
2013-8-30,88,80,74,78,75,73,97,87,66,29.99,29.89,7,0,9,0.00
2013-8-31,90,80,72,78,75,71,99,86,61,29.96,29.86,6,0,6,0.00
2013-9-1,92,82,74,79,76,74,99,84,60,29.93,29.82,8,0,8,0.00
2013-9-2,91,80,72,81,76,70,97,87,66,29.92,29.81,10,0,11,0.42
2013-9-3,91,80,72,79,74,69,98,84,64,29.93,29.81,8,0,8,0.00
2013-9-4,92,80,70,80,74,70,97,82,60,30.06,29.92,6,0,6,0.00
2013-9-5,90,81,74,79,74,71,97,82,59,30.06,29.98,4,0,4,0.00
2013-9-6,89,79,71,72,70,65,97,76,48,30.08,29.99,7,0,7,0.00
2013-9-7,87,76,69,74,69,65,97,80,52,30.06,29.96,9,0,9,0.00
2013-9-8,89,77,66,75,70,66,98,83,55,29.98,29.88,7,0,7,0.00
2013-9-9,89,78,70,77,72,69,98,83,61,30.11,29.95,8,0,9,0.00
2013-9-10,90,78,70,76,72,68,97,82,55,30.19,30.09,11,1,11,0.00
2013-9-11,90,78,71,77,71,67,97,81,53,30.17,30.06,8,0,9,0.00
2013-9-12,90,78,68,74,70,67,98,80,49,30.07,29.86,6,0,7,0.00
2013-9-13,91,79,73,76,73,70,97,83,58,29.86,29.71,5,0,5,0.42
2013-9-14,84,75,67,74,69,62,98,82,70,30.04,29.77,7,0,7,0.00
2013-9-15,89,77,67,77,71,66,96,84,57,30.12,30.03,10,1,10,0.00
2013-9-16,88,76,71,78,73,70,99,90,68,30.11,29.99,7,0,7,0.08
2013-9-17,82,74,68,71,66,63,98,80,58,30.19,30.05,8,1,8,0.01
2013-9-18,80,70,61,64,59,54,89,69,45,30.20,30.11,8,1,13,0.00
2013-9-19,84,72,62,68,63,58,94,75,51,30.14,30.04,7,0,7,0.00
2013-9-20,86,73,64,71,67,63,98,82,58,30.07,29.93,8,0,8,0.00
2013-9-21,88,75,65,75,70,64,98,84,59,29.94,29.71,10,0,10,0.00
2013-9-22,78,73,67,73,69,66,97,88,73,29.85,29.68,6,0,6,0.13
2013-9-23,82,70,60,67,62,58,98,79,48,30.02,29.84,7,0,7,0.00
2013-9-24,81,70,60,66,62,58,96,79,57,30.03,29.89,9,1,9,0.00
2013-9-25,80,72,66,70,66,62,94,83,69,29.90,29.77,8,1,8,0.01
2013-9-26,74,67,62,67,64,60,98,91,77,29.94,29.78,6,0,7,0.84
2013-9-27,79,69,60,67,61,58,94,79,61,30.09,29.93,7,1,9,0.00
2013-9-28,77,67,58,65,60,56,91,80,65,30.14,30.06,7,1,8,0.00
2013-9-29,77,67,59,62,59,57,95,78,55,30.09,29.99,8,1,8,0.00
2013-9-30,77,65,54,63,59,54,97,83,54,30.05,29.96,7,0,7,0.00
2013-10-1,80,67,56,65,60,55,98,80,47,30.12,30.02,6,0,6,0.00
2013-10-2,86,70,58,67,62,57,98,79,47,30.13,30.04,5,0,6,0.00
2013-10-3,85,71,59,72,66,58,98,85,58,30.12,30.05,7,0,9,0.00
2013-10-4,86,73,63,74,67,62,99,85,52,30.12,30.03,5,0,5,0.00
2013-10-5,87,74,65,73,68,65,99,83,55,30.10,30.01,7,0,8,0.00
2013-10-6,86,74,66,78,71,65,99,90,72,30.04,29.90,9,0,9,0.14
2013-10-7,82,75,72,76,74,72,98,95,80,29.91,29.77,6,0,6,0.84
2013-10-8,74,66,59,74,63,57,98,92,85,30.05,29.81,10,1,11,0.02
2013-10-9,75,65,58,64,60,56,92,83,68,30.09,30.00,10,1,10,0.00
2013-10-10,76,65,55,64,60,54,96,83,62,30.04,29.93,7,1,7,0.00
2013-10-11,80,70,63,67,64,61,95,83,57,29.99,29.88,7,0,7,0.00
2013-10-12,82,71,63,68,66,62,97,83,59,30.03,29.91,5,0,5,0.00
2013-10-13,74,70,67,67,66,64,95,89,78,30.12,30.01,8,0,8,0.00
2013-10-14,75,70,67,68,66,64,93,88,79,30.10,30.03,10,1,10,0.00
2013-10-15,73,66,62,64,62,59,96,85,68,30.09,29.98,11,1,11,0.00
2013-10-16,72,67,62,66,64,61,97,90,79,30.02,29.94,5,0,6,0.00
2013-10-17,83,70,58,70,65,57,97,86,63,29.98,29.86,7,0,7,0.00
2013-10-18,82,73,66,73,70,66,99,91,74,29.97,29.87,5,0,5,0.00
2013-10-19,82,73,67,73,70,62,99,89,71,29.94,29.83,6,0,7,0.02
2013-10-20,72,66,59,62,59,56,90,80,67,30.05,29.89,6,0,9,0.01
2013-10-21,69,63,57,63,58,54,90,85,73,30.10,29.99,4,0,5,0.00
2013-10-22,69,64,61,63,60,58,94,88,73,30.01,29.83,3,0,3,0.02
2013-10-23,73,64,54,62,53,40,97,71,35,30.00,29.75,13,1,13,0.01
2013-10-24,64,53,40,48,42,36,93,69,41,30.19,30.00,9,0,9,0.00
2013-10-25,62,52,45,47,43,38,97,73,46,30.34,30.13,11,1,11,0.00
2013-10-26,66,50,38,48,41,34,94,72,45,30.33,30.14,6,0,6,0.00
2013-10-27,72,55,40,56,48,39,95,79,48,30.15,30.06,5,0,5,0.00
2013-10-28,74,61,53,62,56,52,97,87,61,30.24,30.11,4,0,4,0.00
2013-10-29,77,62,50,63,56,50,98,83,51,30.31,30.21,6,0,7,0.00
2013-10-30,78,63,52,65,58,52,99,83,54,30.30,30.16,4,0,4,0.00
2013-10-31,82,68,52,69,62,51,98,84,60,30.19,29.97,10,1,10,0.00
2013-11-1,80,74,69,70,69,67,97,87,71,29.97,29.73,10,0,10,0.72
2013-11-2,70,64,53,68,60,50,98,87,57,29.94,29.72,6,0,6,0.46
2013-11-3,67,55,47,50,45,42,95,72,43,30.28,29.94,8,0,11,0.00
2013-11-4,66,54,46,44,41,36,88,64,36,30.42,30.27,10,1,10,0.00
2013-11-5,65,54,42,59,49,39,94,85,71,30.43,30.30,7,1,7,0.02
2013-11-6,75,64,53,66,60,52,96,87,71,30.30,30.07,7,0,7,0.00
2013-11-7,77,67,60,67,64,54,98,90,69,30.07,29.91,6,0,6,0.00
2013-11-8,62,52,39,54,38,33,94,62,37,30.29,30.03,10,1,10,0.00
2013-11-9,63,52,39,53,45,36,95,80,57,30.34,30.22,6,0,6,0.00
2013-11-10,70,57,48,56,51,47,96,81,50,30.25,30.13,6,0,6,0.00
2013-11-11,66,54,46,49,45,39,96,73,49,30.28,30.15,8,0,8,0.00
2013-11-12,72,57,41,52,45,32,97,68,39,30.34,29.99,20,1,22,0.00
2013-11-13,50,40,30,33,27,21,87,61,36,30.50,30.33,16,2,17,0.00
2013-11-14,61,44,28,45,36,25,94,74,49,30.48,30.31,5,0,6,0.00
2013-11-15,63,55,44,59,53,42,97,91,83,30.31,30.13,6,0,6,0.00
2013-11-16,77,64,56,65,60,55,98,87,63,30.20,30.12,6,0,6,0.00
2013-11-17,79,65,55,72,64,54,98,95,77,30.17,29.97,8,0,8,0.02
2013-11-18,82,72,62,72,67,49,99,86,61,29.98,29.80,10,0,10,0.00
2013-11-19,63,55,45,50,38,35,79,55,37,30.19,29.90,9,1,10,0.00
2013-11-20,59,52,44,48,42,36,78,71,63,30.32,30.18,12,2,12,0.00
2013-11-21,70,59,51,61,53,46,97,83,66,30.38,30.29,6,1,7,0.00
2013-11-22,76,65,58,68,63,58,98,93,72,30.32,30.13,8,0,8,0.06
2013-11-23,68,63,58,66,62,54,99,95,87,30.13,29.98,6,0,7,0.02
2013-11-24,58,43,32,54,25,17,88,50,31,30.51,30.09,15,2,16,0.00
2013-11-25,51,41,30,42,26,13,82,57,36,30.52,30.24,11,1,11,0.00
2013-11-26,71,58,43,70,56,38,98,93,79,30.24,29.57,14,1,15,0.04
2013-11-27,70,54,37,68,51,34,98,93,86,30.20,29.48,16,2,18,0.00
2013-11-28,47,37,30,34,29,24,95,75,48,30.48,30.20,9,1,10,0.00
2013-11-29,58,42,30,37,33,29,96,73,42,30.52,30.44,10,1,10,0.00
2013-11-30,56,46,35,43,37,30,82,71,58,30.52,30.30,9,1,9,0.00
2013-12-1,60,52,46,52,48,42,95,84,73,30.30,29.99,6,0,6,0.00
2013-12-2,64,54,44,52,49,43,96,84,54,29.99,29.80,7,0,7,0.00
2013-12-3,70,56,44,56,51,43,97,84,58,29.97,29.87,10,0,10,0.05
2013-12-4,76,64,56,66,60,55,98,89,69,30.09,29.96,7,0,8,0.00
2013-12-5,80,67,54,68,62,54,99,87,62,30.16,30.06,9,0,9,0.00
2013-12-6,82,72,66,71,67,64,96,85,66,30.14,30.05,14,1,14,0.00
2013-12-7,76,63,48,70,60,46,98,92,81,30.33,30.07,9,1,9,0.15
2013-12-8,48,45,44,46,44,43,97,96,96,30.34,30.24,8,1,8,0.08
2013-12-9,71,55,44,67,53,43,98,94,84,30.25,30.04,5,0,5,0.01
2013-12-10,75,63,47,70,59,44,98,89,70,30.30,29.94,16,1,16,0.04
2013-12-11,57,46,36,44,37,31,90,72,47,30.44,30.27,6,0,8,0.00
2013-12-12,55,42,32,39,33,28,96,73,39,30.39,30.26,11,1,11,0.00
2013-12-13,59,43,28,39,32,25,94,68,30,30.41,30.23,7,0,8,0.00
2013-12-14,69,60,46,67,57,38,97,90,74,30.23,29.77,12,1,12,0.91
2013-12-15,65,56,42,64,52,39,97,86,68,30.12,29.76,14,-3,14,0.07
2013-12-16,60,45,34,42,38,32,95,78,45,30.22,30.12,7,0,7,0.00
2013-12-17,66,50,35,45,39,34,97,70,36,30.22,30.06,9,1,9,0.00
2013-12-18,57,47,34,40,35,28,93,65,34,30.32,30.09,8,1,8,0.00
2013-12-19,65,47,31,50,40,30,96,79,43,30.36,30.23,5,0,9,0.00
2013-12-20,73,58,46,59,53,44,96,85,61,30.25,30.14,8,0,8,0.00
2013-12-21,79,65,51,69,62,50,97,89,70,30.17,30.05,12,1,14,0.00
2013-12-22,81,72,67,72,69,65,97,89,73,30.11,30.05,14,1,16,0.00
2013-12-23,81,70,58,71,67,57,97,91,68,30.12,30.00,14,1,14,0.29
2013-12-24,59,53,41,57,44,32,97,75,47,30.37,30.05,12,1,12,0.05
2013-12-25,50,41,32,34,30,24,75,65,50,30.48,30.33,10,1,12,0.00
2013-12-26,49,44,38,44,39,30,94,83,67,30.34,30.23,8,1,9,0.01
2013-12-27,58,47,40,40,37,33,86,69,40,30.40,30.30,8,1,9,0.00
2013-12-28,63,49,34,53,40,31,96,73,40,30.39,30.04,7,0,7,0.03
2013-12-29,73,63,52,69,60,49,99,90,64,30.04,29.79,19,1,19,0.67
2013-12-30,60,52,43,50,47,41,96,83,67,30.16,29.96,7,0,7,0.00
2013-12-31,56,51,43,48,44,40,90,79,60,30.36,30.13,5,1,10,0.00
2014-1-1,52,46,41,47,42,38,95,87,74,30.36,30.12,2,0,6,0.22
2014-1-2,57,51,46,56,50,39,98,95,70,30.12,29.65,8,1,14,0.73